Powrót do katalogu

MOLNIYA 1-90

AktywnyŁącznośćHEO
NORAD 24960·PAYLOAD·🇷🇺 Russia

Wystrzelony Sep 24, 1997 z Plesetsk Cosmodrome

Loading…

Następne Przeloty (najbliższe 24 godziny)

TLE

ŚwieżeSource: Space-Track

Epoka: Sep 14, 2026, 19:50 UTC

1 24960U 97054A   26257.82685162  .00000052  00000-0 -13350-1 0  9997
2 24960  64.3985 185.3793 5859005 278.5098  22.7983  3.18691026257411

Śledź MOLNIYA 1-90 w czasie rzeczywistym z AllMySat

Download on the App Store